{"data":{"norad_id":67622,"intl_designator":"2026-020F","name":"STARLINK-36614","alt_names":[],"object_type":"PAYLOAD","status":"ACTIVE","operator":null,"country":"US","launch_date":"2026-01-30","launch_site_code":"AFETR","launch_vehicle":null,"mission":null,"orbit_class":"UNKNOWN","rcs_meters":null,"size_class":null,"mass_kg":null,"dimensions":null,"purposes":["comms"],"wikipedia_slug":null,"has_3d_model":false,"image_url":null,"decayed_at":null,"tle_current":{"epoch":"2026-09-19T21:27:00.807840Z","epoch_age_seconds":121315,"freshness":"FRESH","line1":"1 67622U 26020F   26262.89375935  .00011595  00000+0  43008-3 0  9998","line2":"2 67622  42.9993 123.1005 0000715 259.1267 100.9504 15.27590038 35814","mean_motion":15.27590038,"eccentricity":7.15e-5,"inclination_deg":42.9993,"raan_deg":123.1005,"arg_perigee_deg":259.1267,"mean_anomaly_deg":100.9504,"bstar":0.00043008,"rev_number":3581,"period_min":94.266129274142,"perigee_km":482.52846616432,"apogee_km":483.50961147787,"semimajor_km":6861.1560388211,"source":"CELESTRAK","updated_at":"2026-09-20T09:00:43.611128Z"}}}